Flag for Brazil Weather past 2 weeks in Niterói, Rio de Janeiro, Brazil

Now
86 °F

Partly sunny.


Feels Like: 88 °F
Forecast: 74 / 85 °F
Wind: 7 mph from Southeast

Location: Rio De Janeiro Airport

Current Time: Sep 30, 2014 at 1:51:07 PM

Latest Report: Sep 30, 2014 at 1:00 PM


Visibility: N/A

Pressure: 29.86 "Hg

Humidity: 52%

Dew point: 66 °F

Location of NiteróiLocation

Historic Weather in Niterói — Graph

°F

Niterói temperature yesterday

Maximum temperature yesterday: 86 °F (at 10:00 AM)
Minimum temperature yesterday: 72 °F (at 6:00 AM)
Average temperature yesterday: 80 °F

Past Weeks' High & Low Weather Summary

 TemperatureHumidityPressure
High91 °F (Sep 15, 2:00 PM)100% (Sep 28, 6:00 AM)30.18 "Hg (Sep 28, 6:00 AM)
Low64 °F (Sep 23, 6:00 AM)29% (Sep 24, 2:00 PM)29.80 "Hg (Sep 15, 3:00 PM)
Average75 °F76%29.98 "Hg
* Reported Sep 15 12:00 Noon — Sep 30 12:00 Noon, Niterói, Weather by CustomWeather, © 2014

Note: Actual official high and low records may vary slightly from our data, if they occured in-between our weather recording intervals... More about our weather records

Advertising

Niterói weather history for previous 24 hours

 ConditionsComfort  
Time TempWeatherWind HumidityBarometerVisibility
12:00 PM
Sep 30
86 °FScattered clouds.6 mph49%29.89 "HgN/A
11:00 AM86 °FScattered clouds.7 mph52%29.92 "Hg6 mi
10:00 AM79 °FPassing clouds.3 mph79%29.95 "Hg4 mi
9:00 AM79 °FHaze.6 mph79%29.95 "Hg3 mi
8:00 AM77 °FFog.6 mph79%29.95 "Hg3 mi
7:00 AM72 °FFog.7 mph94%29.95 "Hg3 mi
6:00 AM72 °FFog.12 mph94%29.92 "Hg3 mi
11:00 PM
Sep 29
75 °FClear.5 mph89%29.95 "Hg10 mi
10:00 PM79 °FClear.6 mph74%29.95 "Hg10 mi
9:00 PM77 °FClear.2 mph79%29.95 "Hg10 mi
8:00 PM75 °FClear.5 mph83%29.92 "Hg10 mi
7:00 PM77 °FClear.2 mph79%29.89 "Hg10 mi
6:00 PM79 °FPassing clouds.16 mph74%29.86 "Hg6 mi
5:00 PM84 °FPassing clouds.20 mph66%29.83 "Hg6 mi
4:00 PM86 °FSunny.12 mph62%29.80 "Hg10 mi
3:00 PM86 °FSunny.9 mph62%29.80 "Hg10 mi
2:00 PM84 °FPassing clouds.8 mph62%29.80 "HgN/A
1:00 PM82 °FPassing clouds.8 mph70%29.83 "Hg6 mi
Weather by CustomWeather, © 2014

See weather overviewHow to use our weather pages